Wind_Speed
42 45 46 45 47 49 50 50 51 51 50 51 52 51 49 47 45 45 44 41 39 35 32 30 29 28 27 27 26 25 25 25 26 26 25 25 27 28 30 31 31 30 30 31
45 45 44 45 48 51 52 52 52 52 51 53 54 54 52 50 48 47 46 43 40 36 33 30 29 28 28 28 27 26 27 27 27 27 27 28 29 30 31 32 32 31 32 34
46 45 46 48 49 51 51 51 49 49 48 52 54 55 54 51 49 50 48 45 42 37 33 30 29 29 29 29 28 27 27 28 28 29 29 30 31 30 31 31 31 32 34 37
47 47 47 49 49 49 50 48 48 48 49 51 52 56 55 53 51 51 49 46 42 37 34 30 29 30 29 29 28 28 27 28 29 29 31 31 31 30 31 31 33 35 37 38
46 45 47 48 44 45 46 46 47 49 51 53 52 56 55 52 52 50 48 46 42 37 34 31 30 30 29 29 28 28 27 28 29 30 31 31 30 30 32 33 35 37 38 40
44 44 46 44 41 43 43 45 46 48 50 55 51 54 56 50 49 47 46 44 41 37 34 31 31 30 29 29 29 28 28 28 29 30 30 30 31 32 34 35 37 38 39 40
40 40 40 39 39 39 40 41 44 47 51 54 48 54 54 43 42 43 43 42 39 35 32 30 30 30 30 30 29 29 29 29 30 30 31 31 33 34 35 36 37 39 39 40
32 32 31 31 32 34 36 39 42 44 46 46 47 52 48 40 37 40 41 39 37 34 31 30 31 31 30 30 30 30 30 30 31 31 32 33 34 35 36 37 38 39 39 39
25 25 26 27 28 31 33 37 36 39 40 42 46 47 44 38 36 37 37 36 34 30 30 30 30 29 29 29 29 30 30 30 31 32 33 34 34 35 37 38 38 38 39 41
19 20 21 24 27 30 32 33 36 39 37 38 41 43 40 36 35 33 30 28 28 29 29 29 28 27 27 28 29 29 29 30 31 32 33 34 35 36 37 37 37 39 41 43
14 15 15 20 22 25 30 34 37 37 34 33 35 36 32 32 30 27 25 25 26 26 26 26 26 26 26 26 26 27 28 29 30 31 33 34 35 35 36 37 38 41 43 45
10 10 7 11 14 20 27 31 36 38 35 31 28 28 27 27 26 26 25 25 25 24 24 25 24 23 23 23 24 26 27 28 30 31 32 34 34 35 36 38 41 43 45 47
7 5 2 5 10 17 24 30 34 36 33 28 23 23 26 26 26 26 25 24 23 23 22 22 21 21 22 23 24 26 27 28 29 31 32 33 34 36 38 41 43 45 47 49
1 2 1 3 7 12 20 27 32 34 30 22 21 22 24 24 23 23 23 22 21 20 20 19 19 20 21 22 24 25 26 27 29 30 32 33 35 38 40 43 45 47 49 51
3 6 3 2 9 13 17 23 27 26 19 18 22 24 24 24 23 22 21 20 19 18 18 19 19 20 21 22 23 24 25 27 29 31 33 35 38 40 43 45 47 49 51 53
6 9 7 6 9 12 15 18 20 20 18 20 25 27 25 25 23 22 20 18 17 17 18 18 19 20 20 21 22 24 25 27 30 32 35 37 40 42 44 46 48 50 53 57
9 12 11 10 10 10 11 13 16 20 24 26 26 24 23 22 21 20 19 18 17 17 18 18 19 19 19 21 22 24 26 28 31 34 37 40 42 44 45 46 48 52 57 61
9 11 12 12 13 12 12 13 15 18 21 22 21 21 20 20 19 18 18 18 18 18 17 17 17 18 20 21 23 25 28 31 34 36 39 41 43 44 45 48 52 56 59 61
8 10 11 12 12 12 13 12 13 15 17 18 18 19 19 19 18 17 17 17 18 17 17 18 19 20 21 23 25 27 30 33 35 38 40 41 43 45 48 52 55 58 59 59
7 8 9 9 9 9 9 10 10 12 15 16 17 18 17 17 17 16 17 18 17 17 18 19 20 21 23 25 27 29 32 34 36 38 39 41 44 48 51 54 56 56 56 56
10 8 7 7 6 6 7 8 9 11 13 14 16 17 18 18 19 19 18 18 18 18 19 20 21 23 24 26 28 30 32 34 36 38 41 44 47 50 52 54 54 53 54 57
12 11 9 8 8 8 8 9 10 12 12 13 15 16 18 18 18 17 17 17 18 18 19 20 21 23 25 27 29 31 33 35 37 40 43 46 48 50 51 51 51 53 56 60
13 12 11 10 10 8 9 10 11 11 11 12 13 14 14 15 15 15 16 16 17 17 19 21 23 25 27 28 30 32 34 37 39 42 44 46 48 48 48 49 52 55 59 64
13 13 12 11 10 10 9 10 10 11 11 11 11 12 13 13 13 14 15 16 17 19 21 22 24 25 27 29 31 33 36 38 40 42 44 45 46 47 48 51 55 59 64 70
15 14 13 13 13 12 12 11 11 11 11 11 12 13 13 14 14 15 16 17 18 19 20 22 24 26 28 30 32 34 36 38 41 42 43 44 45 47 50 54 58 64 70 76
16 16 16 16 16 15 14 14 14 13 12 13 13 13 14 14 14 14 15 16 17 19 21 23 25 27 29 31 33 34 37 39 40 41 42 44 46 49 53 57 63 69 75 81
Wind_Direction
267 263 260 259 256 254 252 251 249 249 248 247 246 244 241 239 237 237 238 238 238 238 240 241 240 240 243 247 251 253 251 249 249 253 259 265 270 276 284 290 294 292 290 289
269 267 264 258 255 254 253 252 250 248 246 245 244 243 241 237 234 234 236 236 236 235 236 238 238 239 242 246 251 254 255 253 252 255 260 265 270 278 284 290 291 291 290 290
270 266 261 257 254 253 252 251 249 247 244 244 243 241 239 236 233 232 233 233 233 231 233 235 236 237 241 245 250 254 256 256 255 256 260 265 272 280 286 289 290 290 290 291
268 265 261 257 255 254 252 250 247 243 240 239 240 240 235 233 230 230 231 232 232 230 231 233 235 237 239 243 248 253 256 256 255 256 260 265 273 280 285 288 289 290 291 292
268 262 258 255 253 251 249 245 243 240 239 237 235 238 233 230 228 227 229 231 231 229 229 231 234 236 238 242 247 252 255 255 255 256 260 266 273 279 284 287 289 291 292 293
267 261 256 254 248 245 243 240 238 237 236 235 230 235 232 225 226 225 226 228 230 228 228 231 235 237 239 242 245 250 253 254 255 257 261 266 273 279 283 286 289 291 292 294
267 260 255 250 245 243 241 238 236 235 234 235 228 230 230 219 221 222 223 225 227 227 228 231 235 237 239 241 244 248 251 253 254 257 262 267 273 279 283 286 288 290 292 294
263 257 252 249 246 243 241 237 235 237 237 235 228 229 226 215 215 216 218 220 221 222 224 229 233 236 238 240 244 248 250 253 256 260 264 270 275 280 283 286 288 290 292 293
258 253 248 246 241 237 234 233 232 233 232 232 228 226 223 215 213 213 214 217 217 217 222 228 232 234 236 239 243 247 250 254 258 262 267 272 277 282 285 287 289 291 292 292
253 250 241 239 238 236 233 229 225 222 223 227 225 222 216 210 209 209 210 211 211 215 221 226 229 231 234 237 242 247 251 255 260 264 269 275 280 284 286 287 290 292 293 293
255 251 240 238 235 234 229 223 219 216 215 219 223 216 208 203 204 203 201 201 206 212 217 221 223 227 232 237 243 248 252 257 262 267 273 278 282 284 286 288 291 292 294 294
255 258 247 231 229 225 221 217 214 212 210 209 213 204 194 191 188 189 191 196 201 205 210 214 218 224 231 238 244 249 255 260 266 271 276 280 283 285 288 290 292 293 295 295
262 278 258 221 221 215 210 205 206 205 203 202 202 188 182 178 180 184 188 193 199 203 209 215 221 228 235 241 247 253 258 264 270 275 279 282 284 288 290 292 293 295 295 296
284 2 319 214 208 204 200 196 194 194 193 189 180 171 174 177 179 183 187 192 198 204 211 218 226 233 239 246 252 258 263 268 273 277 281 284 287 290 292 294 295 296 296 297
20 29 38 180 190 196 199 198 195 192 179 171 166 169 172 178 180 183 188 193 199 207 215 224 231 238 244 250 256 262 267 271 275 280 284 288 290 292 294 295 296 297 298 300
46 52 75 136 168 174 182 186 188 178 164 154 155 160 169 176 180 184 188 194 201 210 219 228 236 243 248 255 261 266 270 275 280 284 288 290 292 293 295 296 297 299 300 302
78 78 89 121 142 156 162 163 162 149 145 148 154 161 171 177 183 188 194 200 209 217 225 234 242 250 256 262 266 271 276 280 284 287 289 291 293 294 296 297 299 300 302 303
108 105 109 130 143 146 145 146 151 149 154 157 163 169 178 185 192 198 204 212 219 227 236 245 253 259 263 268 272 276 280 283 286 288 290 292 294 295 297 299 300 302 303 305
130 123 121 129 139 143 151 151 158 169 176 182 184 188 192 197 202 208 216 224 231 238 246 251 256 261 267 271 276 279 282 285 287 289 292 293 295 296 298 300 301 303 305 306
165 153 144 142 147 153 161 168 175 185 194 198 203 207 210 215 222 226 232 237 242 247 252 256 260 266 271 275 279 281 284 287 289 291 292 294 296 297 299 301 303 305 306 308
199 188 179 175 177 183 189 194 200 207 212 214 217 221 226 230 234 238 244 248 250 252 255 259 265 270 274 278 281 283 286 288 289 291 293 295 297 299 301 303 304 306 307 309
209 205 202 200 202 208 212 216 218 222 225 226 227 228 231 235 239 242 245 247 250 253 258 264 269 273 277 280 282 285 287 289 291 293 294 296 299 301 302 304 305 307 309 311
208 206 202 206 213 217 217 216 217 221 225 227 228 228 230 233 235 239 242 246 252 257 263 269 273 277 280 283 285 287 289 291 292 294 296 299 301 302 303 305 308 310 312 314
205 204 204 211 217 218 215 213 216 216 219 225 228 230 231 232 236 240 246 252 259 266 270 273 277 280 283 286 288 289 291 292 294 297 299 301 302 304 306 308 310 313 315 317
206 203 206 213 218 216 214 218 218 218 223 230 235 236 238 240 244 250 255 260 266 270 274 278 281 284 286 288 290 291 293 295 297 300 301 303 305 307 309 312 314 316 318 318
215 216 216 220 224 221 223 225 226 229 233 236 238 240 242 245 249 254 259 265 270 275 279 282 284 287 289 290 292 294 296 299 301 302 303 305 308 310 312 315 318 319 320 320
Height
5673 5675 5677 5681 5681 5682 5684 5687 5691 5694 5695 5697 5702 5708 5715 5720 5726 5731 5735 5740 5745 5751 5754 5756 5759 5762 5765 5766 5768 5770 5772 5774 5775 5776 5777 5777 5777 5777 5775 5774 5771 5769 5767 5765
5662 5664 5666 5665 5665 5667 5670 5673 5678 5680 5681 5683 5689 5695 5703 5708 5715 5721 5725 5731 5737 5743 5747 5750 5753 5756 5759 5760 5762 5764 5765 5767 5768 5770 5771 5771 5771 5770 5769 5767 5765 5763 5761 5758
5649 5652 5650 5650 5652 5653 5656 5660 5665 5667 5668 5671 5676 5683 5691 5698 5704 5710 5715 5721 5727 5735 5740 5744 5747 5750 5752 5755 5756 5758 5759 5760 5762 5763 5764 5764 5764 5763 5762 5760 5758 5755 5753 5750
5635 5637 5636 5637 5639 5640 5643 5648 5650 5652 5654 5659 5664 5669 5680 5686 5693 5701 5707 5713 5719 5728 5733 5737 5740 5744 5746 5748 5750 5751 5753 5754 5755 5756 5757 5758 5757 5756 5754 5752 5750 5748 5745 5742
5621 5623 5621 5623 5627 5627 5631 5634 5636 5638 5641 5646 5652 5656 5668 5675 5683 5693 5700 5705 5712 5720 5726 5730 5733 5737 5740 5742 5744 5745 5746 5748 5749 5750 5750 5750 5750 5748 5747 5745 5742 5739 5736 5732
5607 5607 5607 5611 5613 5614 5617 5620 5623 5624 5627 5632 5644 5645 5653 5667 5677 5686 5693 5698 5705 5712 5718 5723 5727 5730 5733 5736 5738 5739 5740 5741 5742 5743 5743 5743 5742 5741 5739 5737 5734 5731 5727 5723
5593 5594 5595 5598 5601 5603 5606 5610 5612 5613 5615 5622 5636 5633 5644 5662 5670 5678 5685 5691 5698 5705 5712 5716 5720 5723 5726 5729 5731 5733 5734 5735 5736 5736 5736 5736 5735 5733 5731 5729 5726 5722 5718 5714
5581 5583 5586 5588 5591 5594 5596 5599 5604 5608 5611 5618 5624 5626 5639 5654 5661 5667 5675 5682 5690 5698 5704 5709 5713 5716 5719 5722 5724 5726 5728 5729 5730 5730 5729 5728 5727 5725 5723 5720 5717 5713 5709 5706
5575 5577 5579 5580 5582 5583 5586 5589 5597 5600 5603 5609 5614 5622 5632 5644 5653 5661 5669 5676 5684 5692 5697 5701 5706 5710 5713 5716 5717 5719 5721 5722 5723 5722 5721 5720 5719 5716 5714 5711 5707 5704 5700 5696
5570 5571 5573 5573 5573 5576 5580 5584 5587 5590 5597 5603 5609 5616 5627 5639 5649 5657 5665 5673 5680 5685 5690 5695 5700 5704 5706 5709 5711 5712 5714 5715 5715 5715 5714 5712 5710 5708 5705 5702 5699 5695 5691 5687
5567 5567 5568 5567 5567 5571 5574 5577 5581 5586 5592 5600 5606 5615 5625 5636 5645 5654 5662 5668 5674 5680 5685 5689 5694 5697 5700 5702 5705 5706 5707 5708 5707 5707 5706 5704 5701 5699 5696 5693 5690 5686 5682 5677
5565 5564 5563 5564 5564 5564 5567 5572 5577 5583 5589 5596 5603 5615 5624 5633 5641 5649 5656 5663 5669 5674 5679 5684 5688 5691 5694 5697 5699 5700 5701 5701 5700 5699 5698 5696 5693 5691 5688 5684 5680 5676 5672 5667
5565 5564 5563 5564 5565 5564 5564 5569 5574 5581 5588 5594 5602 5616 5623 5631 5638 5645 5653 5659 5665 5670 5675 5679 5683 5687 5689 5691 5693 5694 5694 5693 5693 5691 5690 5688 5685 5682 5679 5675 5671 5666 5661 5656
5565 5565 5565 5565 5566 5566 5568 5571 5574 5579 5585 5594 5603 5614 5623 5630 5637 5644 5650 5656 5662 5667 5671 5675 5679 5681 5684 5685 5686 5687 5687 5686 5685 5684 5682 5680 5677 5674 5669 5665 5661 5656 5651 5645
5566 5566 5566 5566 5567 5569 5571 5574 5577 5581 5588 5596 5605 5614 5623 5631 5637 5644 5649 5654 5659 5664 5668 5671 5674 5676 5678 5679 5680 5680 5680 5679 5678 5676 5674 5671 5668 5664 5660 5655 5651 5645 5639 5633
5568 5568 5568 5569 5570 5571 5574 5577 5580 5585 5591 5599 5606 5615 5623 5630 5636 5642 5648 5652 5657 5661 5664 5666 5669 5671 5672 5673 5673 5673 5672 5671 5670 5668 5665 5662 5658 5654 5650 5645 5640 5634 5628 5621
5571 5571 5571 5573 5574 5576 5579 5581 5585 5590 5596 5603 5610 5618 5625 5631 5636 5641 5646 5650 5654 5657 5660 5662 5664 5665 5666 5667 5667 5666 5665 5663 5661 5659 5656 5653 5649 5644 5640 5635 5629 5623 5616 5608
5575 5574 5575 5577 5580 5582 5586 5587 5591 5595 5601 5607 5612 5618 5625 5630 5635 5639 5643 5647 5650 5653 5655 5657 5658 5659 5660 5660 5659 5658 5657 5655 5653 5650 5647 5643 5639 5634 5629 5624 5618 5611 5603 5594
5578 5579 5580 5582 5584 5586 5590 5592 5595 5599 5604 5609 5613 5618 5624 5628 5633 5637 5640 5643 5645 5648 5650 5651 5652 5653 5653 5653 5652 5651 5649 5647 5644 5641 5638 5634 5629 5624 5619 5612 5606 5598 5589 5581
5581 5583 5585 5586 5588 5590 5594 5596 5599 5603 5606 5610 5614 5618 5622 5626 5630 5634 5636 5638 5640 5642 5644 5645 5646 5646 5646 5645 5644 5643 5641 5638 5636 5632 5628 5624 5619 5614 5607 5600 5593 5585 5577 5568
5583 5585 5587 5588 5590 5592 5595 5597 5600 5605 5607 5609 5612 5616 5619 5623 5626 5629 5630 5633 5635 5636 5638 5639 5639 5639 5639 5638 5637 5635 5633 5630 5627 5623 5619 5614 5608 5602 5596 5588 5581 5573 5565 5557
5582 5584 5586 5588 5591 5595 5595 5597 5600 5602 5604 5607 5610 5613 5615 5618 5621 5624 5626 5627 5629 5630 5632 5632 5633 5632 5632 5631 5629 5627 5624 5621 5618 5613 5609 5603 5597 5591 5584 5577 5569 5562 5554 5545
5580 5583 5585 5588 5591 5592 5593 5595 5597 5599 5602 5604 5607 5609 5612 5614 5617 5619 5621 5622 5624 5625 5626 5626 5626 5625 5624 5623 5621 5619 5616 5612 5608 5603 5598 5592 5586 5580 5573 5566 5558 5550 5541 5531
5578 5580 5583 5585 5587 5589 5591 5593 5595 5598 5600 5602 5604 5607 5609 5611 5613 5615 5616 5618 5619 5620 5620 5620 5619 5618 5617 5615 5613 5610 5606 5602 5598 5593 5587 5582 5575 5569 5562 5555 5546 5537 5527 5517
5575 5578 5580 5582 5585 5587 5589 5591 5594 5596 5598 5600 5602 5604 5605 5607 5609 5610 5612 5613 5613 5614 5614 5613 5612 5611 5609 5606 5604 5600 5597 5592 5588 5583 5577 5571 5565 5559 5551 5543 5534 5524 5513 5500
5573 5576 5578 5580 5582 5585 5587 5589 5592 5593 5595 5597 5599 5600 5602 5604 5605 5606 5607 5608 5608 5608 5607 5606 5605 5603 5601 5598 5595 5591 5587 5583 5578 5573 5567 5562 5555 5548 5540 5531 5521 5508 5497 5482